| time (UTC) | temp C | wind direction | speed KPH | gust KPH | rain 1hr cm | rain 24hr cm | rain mn cm | humidity % | barometer mb |
| 20260507235730 | 21 | 229 | 3.2 | 17.7 | 0.00 | 0.00 | 0.00 | 55 | 1016.4 |
| 20260507234734 | 21 | 173 | 3.2 | 14.5 | 0.00 | 0.00 | 0.00 | 56 | 1016.1 |
| 20260507234730 | 21 | 286 | 6.4 | 19.3 | 0.00 | 0.00 | 0.00 | 57 | 1016.4 |
| 20260507234343 | 21 | 166 | 3.2 | 9.7 | 0.00 | 0.00 | 0.00 | 52 | 1016.3 |
| 20260507233843 | 22 | 202 | 1.6 | 9.7 | 0.00 | 0.00 | 0.00 | 53 | 1016.4 |
| 20260507232736 | 22 | 185 | 1.6 | 6.4 | 0.00 | 0.00 | 0.00 | 56 | 1016.6 |
| 20260507232730 | 22 | 153 | 1.6 | 6.4 | 0.00 | 0.00 | 0.00 | 53 | 1016.4 |
| 20260507232344 | 21 | 157 | 1.6 | 6.4 | 0.00 | 0.00 | 0.00 | 55 | 1016.7 |
| 20260507231844 | 21 | 53 | 1.6 | 6.4 | 0.00 | 0.00 | 0.00 | 54 | 1016.7 |
| 20260507230733 | 21 | 9 | 1.6 | 8.0 | 0.00 | 0.00 | 0.00 | 59 | 1016.9 |
| 20260507230728 | 21 | 80 | 1.6 | 6.4 | 0.00 | 0.00 | 0.00 | 54 | 1016.8 |
| 20260507225728 | 21 | 331 | 1.6 | 8.0 | 0.00 | 0.00 | 0.00 | 56 | 1017.0 |
| 20260507225229 | 21 | 302 | 1.6 | 6.4 | 0.00 | 0.00 | 0.00 | 56 | 1017.1 |
| 20260507224732 | 20 | 329 | 1.6 | 4.8 | 0.00 | 0.00 | 0.00 | 59 | 1017.3 |
| 20260507224727 | 20 | 255 | 1.6 | 4.8 | 0.00 | 0.00 | 0.00 | 57 | 1017.2 |
| 20260507223729 | 20 | 262 | 3.2 | 9.7 | 0.00 | 0.00 | 0.00 | 57 | 1017.3 |
| 20260507223724 | 20 | 54 | 3.2 | 9.7 | 0.00 | 0.00 | 0.00 | 59 | 1017.5 |
| 20260507222722 | 20 | 17 | 3.2 | 6.4 | 0.00 | 0.00 | 0.00 | 58 | 1017.5 |
| 20260507222222 | 20 | 29 | 3.2 | 6.4 | 0.00 | 0.00 | 0.00 | 56 | 1017.5 |
| 20260507221722 | 20 | 329 | 3.2 | 6.4 | 0.00 | 0.00 | 0.00 | 58 | 1017.6 |
| 20260507221221 | 20 | 219 | 3.2 | 9.7 | 0.00 | 0.00 | 0.00 | 55 | 1017.7 |
| 20260507220722 | 20 | 187 | 3.2 | 9.7 | 0.00 | 0.00 | 0.00 | 57 | 1017.7 |
| 20260507220223 | 19 | 172 | 3.2 | 9.7 | 0.00 | 0.00 | 0.00 | 61 | 1017.7 |
| 20260507215722 | 19 | 185 | 3.2 | 9.7 | 0.00 | 0.00 | 0.00 | 58 | 1017.8 |
| 20260507215221 | 19 | 168 | 1.6 | 6.4 | 0.00 | 0.00 | 0.00 | 56 | 1017.9 |
| 20260507214726 | 19 | 38 | 1.6 | 9.7 | 0.00 | 0.00 | 0.00 | 62 | 1018.1 |
| 20260507214722 | 20 | 165 | 1.6 | 6.4 | 0.00 | 0.00 | 0.00 | 59 | 1018.0 |
| 20260507213721 | 19 | 280 | 1.6 | 9.7 | 0.00 | 0.00 | 0.00 | 58 | 1018.1 |
| 20260507213226 | 19 | 65 | 3.2 | 11.3 | 0.00 | 0.00 | 0.00 | 62 | 1018.1 |
| 20260507213222 | 19 | 138 | 1.6 | 11.3 | 0.00 | 0.00 | 0.00 | 62 | 1018.2 |
| 20260507212221 | 19 | 331 | 1.6 | 9.7 | 0.00 | 0.00 | 0.00 | 60 | 1018.3 |
| 20260507211720 | 19 | 166 | 1.6 | 9.7 | 0.00 | 0.00 | 0.00 | 65 | 1018.2 |
| 20260507211221 | 18 | 132 | 3.2 | 12.9 | 0.00 | 0.00 | 0.00 | 65 | 1018.3 |
| 20260507210720 | 18 | 184 | 3.2 | 12.9 | 0.00 | 0.00 | 0.00 | 61 | 1018.4 |
| 20260507210222 | 18 | 0 | 3.2 | 11.3 | 0.00 | 0.00 | 0.00 | 62 | 1018.5 |
| 20260507210218 | 18 | 169 | 3.2 | 11.3 | 0.00 | 0.00 | 0.00 | 58 | 1018.4 |
| 20260507205219 | 18 | 166 | 4.8 | 11.3 | 0.00 | 0.00 | 0.00 | 61 | 1018.6 |
| 20260507204723 | 18 | 13 | 1.6 | 9.7 | 0.00 | 0.00 | 0.00 | 62 | 1018.7 |
| 20260507204717 | 18 | 180 | 3.2 | 9.7 | 0.00 | 0.00 | 0.00 | 61 | 1018.6 |
| 20260507203718 | 18 | 59 | 1.6 | 9.7 | 0.00 | 0.00 | 0.00 | 62 | 1018.7 |
| 20260507203218 | 18 | 59 | 3.2 | 11.3 | 0.00 | 0.00 | 0.00 | 63 | 1018.8 |
| 20260507202723 | 18 | 163 | 1.6 | 6.4 | 0.00 | 0.00 | 0.00 | 67 | 1018.9 |
| 20260507202717 | 18 | 16 | 3.2 | 11.3 | 0.00 | 0.00 | 0.00 | 63 | 1018.8 |
| 20260507201718 | 18 | 18 | 3.2 | 6.4 | 0.00 | 0.00 | 0.00 | 62 | 1018.9 |
| 20260507201221 | 17 | 62 | 1.6 | 8.0 | 0.00 | 0.00 | 0.00 | 65 | 1019.1 |
| 20260507201217 | 17 | 9 | 3.2 | 6.4 | 0.00 | 0.00 | 0.00 | 65 | 1019.0 |
| 20260507200217 | 17 | 277 | 1.6 | 8.0 | 0.00 | 0.00 | 0.00 | 61 | 1019.1 |
| 20260507195721 | 17 | 169 | 3.2 | 8.0 | 0.00 | 0.00 | 0.00 | 64 | 1019.2 |
| 20260507195716 | 17 | 178 | 3.2 | 11.3 | 0.00 | 0.00 | 0.00 | 65 | 1019.3 |
| 20260507195329 | 17 | 166 | 3.2 | 11.3 | 0.00 | 0.00 | 0.00 | 65 | 1019.3 |
| 20260507194216 | 17 | 326 | 3.2 | 8.0 | 0.00 | 0.00 | 0.00 | 67 | 1019.3 |
| 20260507193717 | 17 | 5 | 3.2 | 8.0 | 0.00 | 0.00 | 0.00 | 64 | 1019.4 |
| 20260507193214 | 17 | 340 | 4.8 | 11.3 | 0.00 | 0.00 | 0.00 | 68 | 1019.4 |
| 20260507192715 | 17 | 333 | 4.8 | 11.3 | 0.00 | 0.00 | 0.00 | 68 | 1019.4 |
| 20260507192213 | 17 | 25 | 1.6 | 9.7 | 0.00 | 0.00 | 0.00 | 64 | 1019.5 |
| 20260507191718 | 17 | 185 | 1.6 | 6.4 | 0.00 | 0.00 | 0.00 | 66 | 1019.6 |
| 20260507191714 | 17 | 112 | 1.6 | 9.7 | 0.00 | 0.00 | 0.00 | 70 | 1019.6 |
| 20260507190713 | 17 | 213 | 1.6 | 6.4 | 0.00 | 0.00 | 0.00 | 66 | 1019.7 |
| 20260507190212 | 16 | 46 | 3.2 | 6.4 | 0.00 | 0.00 | 0.00 | 64 | 1019.7 |
| 20260507185712 | 16 | 204 | 3.2 | 12.9 | 0.00 | 0.00 | 0.00 | 65 | 1019.7 |
| 20260507185216 | 16 | 5 | 3.2 | 12.9 | 0.00 | 0.00 | 0.00 | 68 | 1019.9 |
| 20260507185210 | 16 | 14 | 4.8 | 14.5 | 0.00 | 0.00 | 0.00 | 66 | 1019.9 |
| 20260507184208 | 16 | 5 | 6.4 | 14.5 | 0.00 | 0.00 | 0.00 | 69 | 1019.9 |
| 20260507183709 | 16 | 21 | 3.2 | 12.9 | 0.00 | 0.00 | 0.00 | 72 | 1019.8 |
| 20260507183207 | 16 | 291 | 1.6 | 6.4 | 0.00 | 0.00 | 0.00 | 69 | 1019.9 |
| 20260507182708 | 16 | 204 | 1.6 | 6.4 | 0.00 | 0.00 | 0.00 | 71 | 1019.9 |
| 20260507182207 | 15 | 248 | 1.6 | 4.8 | 0.00 | 0.00 | 0.00 | 72 | 1019.9 |
| 20260507181713 | 15 | 179 | 1.6 | 6.4 | 0.00 | 0.00 | 0.00 | 70 | 1020.1 |
| 20260507181708 | 15 | 245 | 1.6 | 6.4 | 0.00 | 0.00 | 0.00 | 69 | 1020.0 |
| 20260507180709 | 14 | 177 | 1.6 | 6.4 | 0.00 | 0.00 | 0.00 | 72 | 1020.1 |
| 20260507180212 | 14 | 30 | 1.6 | 4.8 | 0.00 | 0.00 | 0.00 | 72 | 1020.2 |
| 20260507180208 | 14 | 35 | 0.0 | 3.2 | 0.00 | 0.00 | 0.00 | 70 | 1020.1 |
| 20260507175206 | 14 | 31 | 1.6 | 4.8 | 0.00 | 0.00 | 0.00 | 74 | 1020.2 |
| 20260507174705 | 14 | 312 | 3.2 | 9.7 | 0.00 | 0.00 | 0.00 | 71 | 1020.3 |
| 20260507174205 | 15 | 11 | 4.8 | 9.7 | 0.00 | 0.00 | 0.00 | 72 | 1020.2 |
| 20260507173703 | 15 | 349 | 4.8 | 11.3 | 0.00 | 0.00 | 0.00 | 71 | 1020.3 |
| 20260507173203 | 15 | 329 | 4.8 | 11.3 | 0.00 | 0.00 | 0.00 | 72 | 1020.3 |
| 20260507172704 | 15 | 0 | 4.8 | 9.7 | 0.00 | 0.00 | 0.00 | 75 | 1020.4 |
| 20260507172204 | 14 | 10 | 3.2 | 8.0 | 0.00 | 0.00 | 0.00 | 77 | 1020.4 |
| 20260507171704 | 13 | 279 | 1.6 | 6.4 | 0.00 | 0.00 | 0.00 | 74 | 1020.4 |
| 20260507171207 | 13 | 323 | 0.0 | 3.2 | 0.00 | 0.00 | 0.00 | 78 | 1020.3 |
| 20260507171203 | 13 | 324 | 0.0 | 3.2 | 0.00 | 0.00 | 0.00 | 78 | 1020.4 |
| 20260507170205 | 13 | 322 | 0.0 | 3.2 | 0.00 | 0.00 | 0.00 | 79 | 1020.3 |
| 20260507165704 | 13 | 321 | 1.6 | 3.2 | 0.00 | 0.00 | 0.00 | 78 | 1020.3 |
| 20260507165203 | 13 | 314 | 1.6 | 3.2 | 0.00 | 0.00 | 0.00 | 76 | 1020.3 |
| 20260507164705 | 13 | 316 | 1.6 | 3.2 | 0.00 | 0.00 | 0.00 | 78 | 1020.4 |
| 20260507164204 | 13 | 9 | 1.6 | 4.8 | 0.00 | 0.00 | 0.00 | 79 | 1020.4 |
| 20260507163704 | 12 | 5 | 1.6 | 4.8 | 0.00 | 0.00 | 0.00 | 78 | 1020.4 |
| 20260507163203 | 12 | 9 | 1.6 | 4.8 | 0.00 | 0.00 | 0.00 | 79 | 1020.4 |
| 20260507162704 | 13 | 17 | 1.6 | 4.8 | 0.00 | 0.00 | 0.00 | 79 | 1020.4 |
| 20260507162203 | 13 | 241 | 1.6 | 3.2 | 0.00 | 0.00 | 0.00 | 79 | 1020.4 |
| 20260507161703 | 12 | 273 | 1.6 | 4.8 | 0.00 | 0.00 | 0.00 | 79 | 1020.4 |
| 20260507161203 | 12 | 275 | 1.6 | 4.8 | 0.00 | 0.00 | 0.00 | 79 | 1020.4 |
| 20260507160704 | 12 | 275 | 1.6 | 3.2 | 0.00 | 0.00 | 0.00 | 79 | 1020.4 |
| 20260507160205 | 12 | 188 | 0.0 | 3.2 | 0.00 | 0.00 | 0.00 | 80 | 1020.4 |
| 20260507155709 | 12 | 273 | 1.6 | 3.2 | 0.00 | 0.00 | 0.00 | 81 | 1020.5 |
| 20260507155704 | 12 | 273 | 0.0 | 3.2 | 0.00 | 0.00 | 0.00 | 81 | 1020.4 |
| 20260507154703 | 12 | 273 | 1.6 | 3.2 | 0.00 | 0.00 | 0.00 | 81 | 1020.4 |
| 20260507154204 | 12 | 258 | 1.6 | 3.2 | 0.00 | 0.00 | 0.00 | 82 | 1020.5 |
| 20260507153703 | 12 | 257 | 0.0 | 3.2 | 0.00 | 0.00 | 0.00 | 82 | 1020.6 |
| 20260507153203 | 12 | 257 | 0.0 | 3.2 | 0.00 | 0.00 | 0.00 | 81 | 1020.6 |
| 20260507152705 | 12 | 257 | 1.6 | 3.2 | 0.00 | 0.00 | 0.00 | 81 | 1020.6 |
| 20260507152205 | 11 | 257 | 1.6 | 3.2 | 0.00 | 0.00 | 0.00 | 82 | 1020.6 |
| 20260507151703 | 11 | 258 | 0.0 | 3.2 | 0.00 | 0.00 | 0.00 | 82 | 1020.6 |
| 20260507151204 | 11 | 255 | 1.6 | 4.8 | 0.00 | 0.00 | 0.00 | 83 | 1020.7 |
| 20260507150703 | 11 | 306 | 1.6 | 4.8 | 0.00 | 0.00 | 0.00 | 82 | 1020.6 |
| 20260507150203 | 11 | 261 | 1.6 | 4.8 | 0.00 | 0.00 | 0.00 | 83 | 1020.7 |
| 20260507145704 | 11 | 248 | 0.0 | 4.8 | 0.00 | 0.00 | 0.00 | 83 | 1020.7 |
| 20260507145202 | 11 | 250 | 1.6 | 3.2 | 0.00 | 0.00 | 0.00 | 84 | 1020.6 |
| 20260507144706 | 11 | 261 | 0.0 | 4.8 | 0.00 | 0.00 | 0.00 | 84 | 1020.6 |
| 20260507144702 | 11 | 261 | 1.6 | 3.2 | 0.00 | 0.00 | 0.00 | 83 | 1020.6 |
| 20260507143701 | 11 | 261 | 0.0 | 4.8 | 0.00 | 0.00 | 0.00 | 84 | 1020.6 |
| 20260507143206 | 11 | 262 | 1.6 | 3.2 | 0.00 | 0.00 | 0.00 | 84 | 1020.6 |
| 20260507143202 | 11 | 261 | 1.6 | 3.2 | 0.00 | 0.00 | 0.00 | 84 | 1020.6 |
| 20260507142814 | 11 | 239 | 1.6 | 3.2 | 0.00 | 0.00 | 0.00 | 85 | 1020.6 |
| 20260507141659 | 11 | 238 | 0.0 | 3.2 | 0.00 | 0.00 | 0.00 | 85 | 1020.5 |
| 20260507141201 | 11 | 244 | 0.0 | 3.2 | 0.00 | 0.00 | 0.00 | 85 | 1020.4 |
| 20260507140701 | 11 | 244 | 0.0 | 3.2 | 0.00 | 0.00 | 0.00 | 85 | 1020.5 |
| 20260507140159 | 11 | 244 | 0.0 | 3.2 | 0.00 | 0.00 | 0.00 | 85 | 1020.4 |
| 20260507135659 | 11 | 244 | 0.0 | 3.2 | 0.00 | 0.00 | 0.00 | 85 | 1020.4 |
| 20260507135203 | 11 | 242 | 0.0 | 4.8 | 0.00 | 0.00 | 0.00 | 85 | 1020.3 |
| 20260507135158 | 10 | 240 | 0.0 | 4.8 | 0.00 | 0.00 | 0.00 | 85 | 1020.3 |
| 20260507134158 | 10 | 234 | 1.6 | 4.8 | 0.00 | 0.00 | 0.00 | 85 | 1020.2 |
| 20260507133658 | 10 | 235 | 1.6 | 4.8 | 0.00 | 0.00 | 0.00 | 84 | 1020.3 |
| 20260507133157 | 10 | 248 | 0.0 | 3.2 | 0.00 | 0.00 | 0.00 | 85 | 1020.2 |
| 20260507132657 | 10 | 249 | 1.6 | 4.8 | 0.00 | 0.00 | 0.00 | 85 | 1020.2 |
| 20260507132155 | 10 | 238 | 1.6 | 4.8 | 0.00 | 0.00 | 0.00 | 85 | 1020.2 |
| 20260507131655 | 10 | 232 | 1.6 | 4.8 | 0.00 | 0.00 | 0.00 | 85 | 1020.3 |
| 20260507131155 | 10 | 229 | 1.6 | 4.8 | 0.00 | 0.00 | 0.00 | 85 | 1020.3 |
| 20260507130659 | 10 | 222 | 1.6 | 4.8 | 0.00 | 0.00 | 0.00 | 85 | 1020.3 |
| 20260507130655 | 10 | 239 | 1.6 | 4.8 | 0.00 | 0.00 | 0.00 | 85 | 1020.3 |
| 20260507125655 | 10 | 226 | 0.0 | 3.2 | 0.00 | 0.00 | 0.00 | 85 | 1020.3 |
| 20260507125154 | 10 | 225 | 0.0 | 3.2 | 0.00 | 0.00 | 0.00 | 85 | 1020.3 |
| 20260507124654 | 11 | 222 | 1.6 | 4.8 | 0.00 | 0.00 | 0.00 | 85 | 1020.4 |
| 20260507124153 | 11 | 221 | 1.6 | 4.8 | 0.00 | 0.00 | 0.00 | 84 | 1020.3 |
| 20260507123657 | 11 | 225 | 0.0 | 3.2 | 0.00 | 0.00 | 0.00 | 85 | 1020.4 |
| 20260507123653 | 11 | 225 | 0.0 | 0.0 | 0.00 | 0.00 | 0.00 | 85 | 1020.4 |
| 20260507122653 | 11 | 222 | 1.6 | 3.2 | 0.00 | 0.00 | 0.00 | 84 | 1020.4 |
| 20260507122154 | 11 | 221 | 1.6 | 4.8 | 0.00 | 0.00 | 0.00 | 85 | 1020.4 |
| 20260507121653 | 11 | 224 | 1.6 | 4.8 | 0.00 | 0.00 | 0.00 | 84 | 1020.5 |
| 20260507121156 | 11 | 224 | 1.6 | 6.4 | 0.00 | 0.00 | 0.00 | 84 | 1020.5 |
| 20260507121152 | 11 | 250 | 1.6 | 6.4 | 0.00 | 0.00 | 0.00 | 84 | 1020.5 |
| 20260507120157 | 11 | 226 | 1.6 | 6.4 | 0.00 | 0.00 | 0.00 | 85 | 1020.6 |
| 20260507120153 | 11 | 235 | 3.2 | 4.8 | 0.00 | 0.00 | 0.00 | 84 | 1020.5 |
| 20260507115652 | 11 | 215 | 3.2 | 6.4 | 0.00 | 0.00 | 0.00 | 85 | 1020.5 |
| 20260507114652 | 11 | 238 | 0.0 | 4.8 | 0.00 | 0.00 | 0.00 | 85 | 1020.7 |
| 20260507114152 | 11 | 251 | 0.0 | 3.2 | 0.00 | 0.00 | 0.00 | 85 | 1020.7 |
| 20260507113651 | 11 | 251 | 0.0 | 3.2 | 0.00 | 0.00 | 0.00 | 85 | 1020.7 |
| 20260507113153 | 11 | 251 | 0.0 | 3.2 | 0.00 | 0.00 | 0.00 | 85 | 1020.7 |
| 20260507112652 | 11 | 251 | 0.0 | 3.2 | 0.00 | 0.00 | 0.00 | 85 | 1020.8 |
| 20260507112150 | 11 | 238 | 0.0 | 3.2 | 0.00 | 0.00 | 0.00 | 85 | 1020.8 |
| 20260507111651 | 11 | 237 | 0.0 | 4.8 | 0.00 | 0.00 | 0.00 | 85 | 1020.8 |
| 20260507111150 | 11 | 237 | 1.6 | 4.8 | 0.00 | 0.00 | 0.00 | 85 | 1020.8 |
| 20260507110650 | 11 | 223 | 1.6 | 4.8 | 0.00 | 0.00 | 0.00 | 85 | 1020.8 |
| 20260507110150 | 11 | 223 | 1.6 | 4.8 | 0.00 | 0.00 | 0.00 | 85 | 1020.8 |
| 20260507105654 | 11 | 277 | 1.6 | 4.8 | 0.00 | 0.00 | 0.00 | 85 | 1020.9 |
| 20260507105649 | 11 | 222 | 1.6 | 4.8 | 0.00 | 0.00 | 0.00 | 85 | 1020.9 |
| 20260507104650 | 11 | 259 | 1.6 | 4.8 | 0.00 | 0.00 | 0.00 | 85 | 1020.9 |
| 20260507104149 | 11 | 266 | 1.6 | 8.0 | 0.00 | 0.00 | 0.00 | 85 | 1020.9 |
| 20260507103654 | 11 | 250 | 0.0 | 4.8 | 0.00 | 0.00 | 0.00 | 85 | 1021.0 |
| 20260507103648 | 11 | 241 | 1.6 | 8.0 | 0.00 | 0.00 | 0.00 | 85 | 1020.9 |
| 20260507102647 | 11 | 252 | 0.0 | 4.8 | 0.00 | 0.00 | 0.00 | 85 | 1021.0 |
| 20260507102152 | 11 | 235 | 1.6 | 4.8 | 0.00 | 0.00 | 0.00 | 84 | 1021.0 |
| 20260507102147 | 11 | 252 | 1.6 | 4.8 | 0.00 | 0.00 | 0.00 | 85 | 1021.0 |
| 20260507101647 | 11 | 242 | 1.6 | 4.8 | 0.00 | 0.00 | 0.00 | 85 | 1021.0 |
| 20260507100653 | 11 | 257 | 1.6 | 4.8 | 0.00 | 0.00 | 0.00 | 84 | 1021.0 |
| 20260507100647 | 11 | 251 | 1.6 | 4.8 | 0.00 | 0.00 | 0.00 | 84 | 1021.0 |
| 20260507095648 | 11 | 252 | 1.6 | 4.8 | 0.00 | 0.00 | 0.00 | 84 | 1021.1 |
| 20260507095150 | 11 | 252 | 1.6 | 4.8 | 0.00 | 0.00 | 0.00 | 84 | 1021.2 |
| 20260507095145 | 11 | 244 | 1.6 | 4.8 | 0.00 | 0.00 | 0.00 | 84 | 1021.1 |
| 20260507094145 | 11 | 261 | 1.6 | 4.8 | 0.00 | 0.00 | 0.00 | 84 | 1021.2 |
| 20260507093645 | 11 | 257 | 0.0 | 4.8 | 0.00 | 0.00 | 0.00 | 84 | 1021.3 |
| 20260507093146 | 11 | 247 | 0.0 | 1.6 | 0.00 | 0.00 | 0.00 | 84 | 1021.3 |
| 20260507092644 | 11 | 247 | 0.0 | 3.2 | 0.00 | 0.00 | 0.00 | 84 | 1021.3 |
| 20260507092144 | 11 | 247 | 0.0 | 3.2 | 0.00 | 0.00 | 0.00 | 84 | 1021.4 |
| 20260507091644 | 11 | 245 | 1.6 | 3.2 | 0.00 | 0.00 | 0.00 | 83 | 1021.4 |
| 20260507091144 | 11 | 256 | 1.6 | 4.8 | 0.00 | 0.00 | 0.00 | 83 | 1021.4 |
| 20260507090645 | 11 | 226 | 1.6 | 6.4 | 0.00 | 0.00 | 0.00 | 83 | 1021.5 |
| 20260507090149 | 11 | 259 | 1.6 | 6.4 | 0.00 | 0.00 | 0.00 | 83 | 1021.6 |
| 20260507090144 | 11 | 248 | 1.6 | 6.4 | 0.00 | 0.00 | 0.00 | 83 | 1021.5 |
| 20260507085144 | 11 | 250 | 1.6 | 6.4 | 0.00 | 0.00 | 0.00 | 83 | 1021.5 |
| 20260507084642 | 11 | 277 | 0.0 | 4.8 | 0.00 | 0.00 | 0.00 | 83 | 1021.5 |
| 20260507084145 | 11 | 263 | 1.6 | 4.8 | 0.00 | 0.00 | 0.00 | 83 | 1021.5 |
| 20260507084141 | 11 | 270 | 1.6 | 4.8 | 0.00 | 0.00 | 0.00 | 83 | 1021.5 |
| 20260507083143 | 11 | 254 | 1.6 | 4.8 | 0.00 | 0.00 | 0.00 | 83 | 1021.5 |
| 20260507083138 | 11 | 259 | 1.6 | 4.8 | 0.00 | 0.00 | 0.00 | 83 | 1021.6 |
| 20260507082143 | 11 | 264 | 1.6 | 4.8 | 0.00 | 0.00 | 0.00 | 83 | 1021.4 |
| 20260507082139 | 11 | 250 | 1.6 | 4.8 | 0.00 | 0.00 | 0.00 | 83 | 1021.4 |
| 20260507081752 | 11 | 264 | 0.0 | 6.4 | 0.00 | 0.00 | 0.00 | 83 | 1021.4 |
| 20260507081139 | 11 | 244 | 1.6 | 6.4 | 0.00 | 0.00 | 0.00 | 83 | 1021.4 |
| 20260507080637 | 11 | 254 | 1.6 | 4.8 | 0.00 | 0.00 | 0.00 | 83 | 1021.4 |
| 20260507075636 | 11 | 260 | 1.6 | 6.4 | 0.00 | 0.00 | 0.00 | 84 | 1021.4 |
| 20260507075136 | 11 | 241 | 1.6 | 6.4 | 0.00 | 0.00 | 0.00 | 83 | 1021.4 |
| 20260507074637 | 11 | 259 | 1.6 | 6.4 | 0.00 | 0.00 | 0.00 | 83 | 1021.4 |
| 20260507074138 | 11 | 257 | 1.6 | 6.4 | 0.00 | 0.00 | 0.00 | 83 | 1021.4 |
| 20260507073637 | 11 | 247 | 1.6 | 6.4 | 0.00 | 0.00 | 0.00 | 83 | 1021.5 |
| 20260507073137 | 11 | 265 | 1.6 | 9.7 | 0.00 | 0.00 | 0.00 | 83 | 1021.4 |
| 20260507072638 | 11 | 251 | 1.6 | 9.7 | 0.00 | 0.00 | 0.00 | 83 | 1021.4 |
| 20260507072142 | 11 | 269 | 1.6 | 8.0 | 0.00 | 0.00 | 0.00 | 83 | 1021.5 |
| 20260507072137 | 11 | 214 | 1.6 | 9.7 | 0.00 | 0.00 | 0.00 | 83 | 1021.5 |
| 20260507071142 | 11 | 232 | 1.6 | 8.0 | 0.00 | 0.00 | 0.00 | 83 | 1021.4 |
| 20260507071138 | 11 | 254 | 1.6 | 8.0 | 0.00 | 0.00 | 0.00 | 83 | 1021.4 |
| 20260507070137 | 11 | 213 | 1.6 | 6.4 | 0.00 | 0.00 | 0.00 | 83 | 1021.5 |
| 20260507065639 | 11 | 276 | 1.6 | 6.4 | 0.00 | 0.00 | 0.00 | 83 | 1021.5 |
| 20260507065142 | 11 | 273 | 3.2 | 9.7 | 0.00 | 0.00 | 0.00 | 83 | 1021.4 |
| 20260507065137 | 11 | 226 | 1.6 | 8.0 | 0.00 | 0.00 | 0.00 | 83 | 1021.4 |
| 20260507064139 | 11 | 257 | 3.2 | 9.7 | 0.00 | 0.00 | 0.00 | 83 | 1021.4 |
| 20260507063637 | 11 | 232 | 3.2 | 8.0 | 0.00 | 0.00 | 0.00 | 83 | 1021.4 |
| 20260507063138 | 11 | 247 | 3.2 | 12.9 | 0.00 | 0.00 | 0.00 | 83 | 1021.5 |
| 20260507062637 | 11 | 262 | 3.2 | 12.9 | 0.00 | 0.00 | 0.00 | 83 | 1021.5 |
| 20260507062138 | 11 | 240 | 1.6 | 6.4 | 0.00 | 0.00 | 0.00 | 83 | 1021.5 |
| 20260507061635 | 11 | 259 | 1.6 | 9.7 | 0.00 | 0.00 | 0.00 | 83 | 1021.5 |
| 20260507061135 | 11 | 219 | 1.6 | 9.7 | 0.00 | 0.00 | 0.00 | 83 | 1021.5 |
| 20260507060636 | 11 | 250 | 1.6 | 8.0 | 0.00 | 0.00 | 0.00 | 83 | 1021.5 |
| 20260507060133 | 11 | 250 | 3.2 | 9.7 | 0.00 | 0.00 | 0.00 | 83 | 1021.5 |
| 20260507055635 | 11 | 284 | 3.2 | 9.7 | 0.00 | 0.00 | 0.00 | 83 | 1021.6 |
| 20260507055132 | 11 | 275 | 1.6 | 9.7 | 0.00 | 0.00 | 0.00 | 83 | 1021.5 |
| 20260507054635 | 11 | 270 | 3.2 | 6.4 | 0.00 | 0.00 | 0.00 | 83 | 1021.5 |
| 20260507054133 | 11 | 265 | 3.2 | 9.7 | 0.00 | 0.00 | 0.00 | 83 | 1021.5 |
| 20260507053638 | 11 | 248 | 3.2 | 8.0 | 0.00 | 0.00 | 0.00 | 83 | 1021.4 |
| 20260507053634 | 11 | 201 | 3.2 | 9.7 | 0.00 | 0.00 | 0.00 | 83 | 1021.5 |
| 20260507052633 | 11 | 286 | 3.2 | 14.5 | 0.00 | 0.00 | 0.00 | 84 | 1021.4 |
| 20260507052131 | 11 | 221 | 3.2 | 14.5 | 0.00 | 0.00 | 0.00 | 84 | 1021.5 |
| 20260507051630 | 11 | 258 | 3.2 | 11.3 | 0.00 | 0.00 | 0.00 | 84 | 1021.5 |
| 20260507051131 | 11 | 236 | 1.6 | 11.3 | 0.00 | 0.00 | 0.00 | 84 | 1021.5 |
| 20260507050630 | 11 | 259 | 1.6 | 9.7 | 0.00 | 0.00 | 0.00 | 84 | 1021.5 |
| 20260507050136 | 11 | 266 | 3.2 | 11.3 | 0.00 | 0.00 | 0.00 | 83 | 1021.5 |
| 20260507050130 | 11 | 250 | 1.6 | 9.7 | 0.00 | 0.00 | 0.00 | 84 | 1021.5 |
| 20260507045131 | 11 | 268 | 3.2 | 11.3 | 0.00 | 0.00 | 0.00 | 83 | 1021.5 |
| 20260507044631 | 11 | 260 | 3.2 | 11.3 | 0.00 | 0.00 | 0.00 | 83 | 1021.5 |
| 20260507044130 | 11 | 252 | 3.2 | 11.3 | 0.00 | 0.00 | 0.00 | 83 | 1021.5 |
| 20260507043629 | 11 | 253 | 3.2 | 11.3 | 0.00 | 0.00 | 0.00 | 83 | 1021.4 |
| 20260507043134 | 11 | 245 | 4.8 | 16.1 | 0.00 | 0.00 | 0.00 | 83 | 1021.4 |
| 20260507043129 | 11 | 246 | 4.8 | 16.1 | 0.00 | 0.00 | 0.00 | 83 | 1021.4 |
| 20260507042130 | 11 | 252 | 3.2 | 11.3 | 0.00 | 0.00 | 0.00 | 83 | 1021.4 |
| 20260507041630 | 11 | 238 | 3.2 | 9.7 | 0.00 | 0.00 | 0.00 | 83 | 1021.3 |
| 20260507041127 | 11 | 279 | 3.2 | 14.5 | 0.00 | 0.00 | 0.00 | 83 | 1021.4 |
| 20260507040631 | 11 | 234 | 3.2 | 12.9 | 0.00 | 0.00 | 0.00 | 83 | 1021.2 |
| 20260507040627 | 11 | 271 | 3.2 | 14.5 | 0.00 | 0.00 | 0.00 | 83 | 1021.3 |
| 20260507035627 | 11 | 252 | 3.2 | 12.9 | 0.00 | 0.00 | 0.00 | 83 | 1021.2 |
| 20260507035126 | 11 | 293 | 3.2 | 19.3 | 0.00 | 0.00 | 0.00 | 83 | 1021.1 |
| 20260507034625 | 11 | 236 | 3.2 | 19.3 | 0.00 | 0.00 | 0.00 | 83 | 1021.0 |
| 20260507034125 | 11 | 250 | 4.8 | 11.3 | 0.00 | 0.00 | 0.00 | 82 | 1021.0 |
| 20260507033625 | 11 | 223 | 4.8 | 12.9 | 0.00 | 0.00 | 0.00 | 82 | 1020.9 |
| 20260507033124 | 11 | 261 | 4.8 | 12.9 | 0.00 | 0.00 | 0.00 | 82 | 1020.9 |
| 20260507032623 | 11 | 294 | 3.2 | 12.9 | 0.00 | 0.00 | 0.00 | 82 | 1020.9 |
| 20260507032120 | 11 | 209 | 4.8 | 14.5 | 0.00 | 0.00 | 0.00 | 81 | 1020.8 |
| 20260507031622 | 11 | 227 | 4.8 | 14.5 | 0.00 | 0.00 | 0.00 | 81 | 1020.9 |
| 20260507031121 | 12 | 257 | 4.8 | 14.5 | 0.00 | 0.00 | 0.00 | 81 | 1020.9 |
| 20260507030621 | 12 | 215 | 4.8 | 14.5 | 0.00 | 0.00 | 0.00 | 81 | 1020.8 |
| 20260507030120 | 12 | 239 | 4.8 | 16.1 | 0.00 | 0.00 | 0.00 | 80 | 1020.8 |
| 20260507025620 | 12 | 231 | 4.8 | 16.1 | 0.00 | 0.00 | 0.00 | 80 | 1020.8 |
| 20260507025121 | 12 | 257 | 4.8 | 16.1 | 0.00 | 0.00 | 0.00 | 80 | 1020.8 |
| 20260507024620 | 12 | 268 | 4.8 | 16.1 | 0.00 | 0.00 | 0.00 | 80 | 1020.8 |
| 20260507024120 | 12 | 300 | 3.2 | 11.3 | 0.00 | 0.00 | 0.00 | 79 | 1020.7 |
| 20260507023620 | 12 | 243 | 4.8 | 14.5 | 0.00 | 0.00 | 0.00 | 79 | 1020.6 |
| 20260507023122 | 12 | 305 | 6.4 | 19.3 | 0.00 | 0.00 | 0.00 | 78 | 1020.6 |
| 20260507022620 | 13 | 249 | 4.8 | 19.3 | 0.00 | 0.00 | 0.00 | 78 | 1020.6 |
| 20260507022120 | 13 | 233 | 4.8 | 16.1 | 0.00 | 0.00 | 0.00 | 78 | 1020.6 |
| 20260507021620 | 13 | 243 | 6.4 | 16.1 | 0.00 | 0.00 | 0.00 | 77 | 1020.7 |
| 20260507021121 | 13 | 299 | 6.4 | 17.7 | 0.00 | 0.00 | 0.00 | 77 | 1020.7 |
| 20260507020621 | 13 | 300 | 6.4 | 17.7 | 0.00 | 0.00 | 0.00 | 76 | 1020.6 |
| 20260507020121 | 13 | 248 | 6.4 | 17.7 | 0.00 | 0.00 | 0.00 | 76 | 1020.7 |
| 20260507015621 | 13 | 284 | 6.4 | 17.7 | 0.00 | 0.00 | 0.00 | 75 | 1020.7 |
| 20260507015121 | 14 | 319 | 6.4 | 16.1 | 0.00 | 0.00 | 0.00 | 75 | 1020.7 |
| 20260507014621 | 14 | 314 | 6.4 | 16.1 | 0.00 | 0.00 | 0.00 | 75 | 1020.7 |
| 20260507014120 | 14 | 226 | 6.4 | 16.1 | 0.00 | 0.00 | 0.00 | 75 | 1020.7 |
| 20260507013621 | 14 | 333 | 6.4 | 19.3 | 0.00 | 0.00 | 0.00 | 74 | 1020.7 |
| 20260507013121 | 14 | 238 | 6.4 | 19.3 | 0.00 | 0.00 | 0.00 | 74 | 1020.7 |
| 20260507012620 | 14 | 338 | 8.0 | 16.1 | 0.00 | 0.00 | 0.00 | 74 | 1020.7 |
| 20260507012125 | 15 | 261 | 8.0 | 22.5 | 0.00 | 0.00 | 0.00 | 74 | 1020.8 |
| 20260507012120 | 14 | 219 | 8.0 | 22.5 | 0.00 | 0.00 | 0.00 | 74 | 1020.8 |
| 20260507011121 | 15 | 278 | 8.0 | 17.7 | 0.00 | 0.00 | 0.00 | 74 | 1020.8 |
| 20260507010621 | 15 | 304 | 8.0 | 19.3 | 0.00 | 0.00 | 0.00 | 73 | 1020.8 |
| 20260507010121 | 15 | 284 | 8.0 | 19.3 | 0.00 | 0.00 | 0.00 | 72 | 1020.9 |
| 20260507005626 | 15 | 286 | 6.4 | 16.1 | 0.00 | 0.00 | 0.00 | 72 | 1020.7 |
| 20260507005622 | 15 | 265 | 8.0 | 17.7 | 0.00 | 0.00 | 0.00 | 73 | 1020.8 |
| 20260507004620 | 15 | 229 | 6.4 | 16.1 | 0.00 | 0.00 | 0.00 | 72 | 1020.7 |
| 20260507004120 | 15 | 287 | 6.4 | 22.5 | 0.00 | 0.00 | 0.00 | 74 | 1020.7 |
| 20260507003620 | 15 | 245 | 6.4 | 22.5 | 0.00 | 0.00 | 0.00 | 71 | 1020.7 |
| 20260507003126 | 16 | 243 | 8.0 | 20.9 | 0.00 | 0.00 | 0.00 | 71 | 1020.6 |
| 20260507003122 | 15 | 236 | 8.0 | 19.3 | 0.00 | 0.00 | 0.00 | 71 | 1020.7 |
| 20260507002122 | 16 | 257 | 8.0 | 20.9 | 0.00 | 0.00 | 0.00 | 71 | 1020.7 |
| 20260507001620 | 16 | 298 | 9.7 | 24.1 | 0.00 | 0.00 | 0.00 | 70 | 1020.7 |
| 20260507001120 | 16 | 269 | 8.0 | 24.1 | 0.00 | 0.00 | 0.00 | 70 | 1020.7 |
| 20260507000623 | 16 | 263 | 8.0 | 24.1 | 0.00 | 0.00 | 0.00 | 70 | 1020.7 |
| 20260507000617 | 16 | 254 | 8.0 | 24.1 | 0.00 | 0.00 | 0.00 | 70 | 1020.6 |